Orbital Elements at Epoch 2459000.5 (2020-May-31.0) TDB
Reference: JPL 20 (heliocentric ecliptic J2000)
Element | Value | Uncertainty (1-sigma) | Units |
e | .1585558293066833 | 3.3975e-08 | |
a | 2.430160024313372 | 9.7835e-09 | au |
q | 2.044843986310416 | 8.2136e-08 | au |
i | 5.93078163187189 | 3.2407e-06 | deg |
node | 251.4137828056847 | 4.1914e-05 | deg |
peri | 39.84628070057916 | 4.3434e-05 | deg |
M | 205.8853325943726 | 1.223e-05 | deg |
tp | 2459592.868843717814 (2022-Jan-13.36884372) | 4.8326e-05 | TDB |
period | 1383.728021013957 3.79 | 8.356e-06 2.288e-08 | d yr |
n | .2601667340206077 | 1.5711e-09 | deg/d |
Q | 2.815476062316328 | 1.1335e-08 | au |
|
| | Orbit Determination Parameters
Additional Information
|